WetterOnline ( https://www.wetteronline.de )

Wetter aktuell Kaczeniec

Aktuelles Wetter: Zielona Gora (192m)

6-stündlich | Neueste Meldungen
Ortszeit Temperatur Wetter
Sa, 23.01. 7:00 2.8° C leichter Regen
Sa, 23.01. 1:00 3.2° C leicht bewölkt
Fr, 22.01. 19:00 6.2° C bewölkt
Fr, 22.01. 13:00 11.4° C leicht bewölkt
Fr, 22.01. 7:00 5.6° C leicht bewölkt
Fr, 22.01. 1:00 7.3° C leichte Schauer
Do, 21.01. 19:00 7.0° C wolkig
Do, 21.01. 13:00 8.8° C wolkig
Ortszeit Temperatur Wetter
Sa, 23.01. 12:00 -0.0° C Schneefall
Sa, 23.01. 11:00 1.4° C leichter Schneeregen
Sa, 23.01. 10:00 1.6° C Regen
Sa, 23.01. 9:00 1.6° C Regen
Sa, 23.01. 8:00 2.2° C leichter Regen
Sa, 23.01. 7:00 2.8° C leichter Regen
Ortszeit Relative Feuchte Sichtweite
Sa, 23.01. 7:00 86% 20 km
Sa, 23.01. 1:00 92% 50 km
Fr, 22.01. 19:00 71% 50 km
Fr, 22.01. 13:00 53% 50 km
Fr, 22.01. 7:00 67% 50 km
Fr, 22.01. 1:00 66% 45 km
Do, 21.01. 19:00 60% 50 km
Do, 21.01. 13:00 52% 50 km
Ortszeit Relative Feuchte Sichtweite
Sa, 23.01. 12:00 99% 0.8 km
Sa, 23.01. 11:00 99% 1.8 km
Sa, 23.01. 10:00 98% 2.2 km
Sa, 23.01. 9:00 97% 2.0 km
Sa, 23.01. 8:00 94% 5.0 km
Sa, 23.01. 7:00 86% 20 km
Ortszeit Niederschlagsmenge Niederschlagsart
Sa, 23.01. 7:00 0.1 l/m2 in 12 Std. -
Sa, 23.01. 1:00 0.1 l/m2 in 6 Std. Schauer
Fr, 22.01. 19:00 0.0 l/m2 in 12 Std. -
Fr, 22.01. 13:00 0.0 l/m2 in 6 Std. -
Fr, 22.01. 7:00 0.1 l/m2 in 12 Std. Schauer
Fr, 22.01. 1:00 0.1 l/m2 in 6 Std. -
Do, 21.01. 19:00 0.0 l/m2 in 12 Std. -
Do, 21.01. 13:00 0.0 l/m2 in 6 Std. -
Ortszeit Niederschlagsmenge Niederschlagsart
Sa, 23.01. 12:00 keine Meldung -
Sa, 23.01. 11:00 keine Meldung -
Sa, 23.01. 10:00 keine Meldung -
Sa, 23.01. 9:00 keine Meldung -
Sa, 23.01. 8:00 keine Meldung -
Sa, 23.01. 7:00 keine Meldung -
Ortszeit Stärke Spitze Richtung
km/h Bft. km/h Grad Sektor
Sa, 23.01. 7:00 11 2 - 60° NO
Sa, 23.01. 1:00 4 1 - 40° NO
Fr, 22.01. 19:00 14 3 40 310° NW
Fr, 22.01. 13:00 22 4 47 220° SW
Fr, 22.01. 7:00 14 3 - 180° S
Fr, 22.01. 1:00 14 3 36 190° S
Do, 21.01. 19:00 14 3 50 190° S
Do, 21.01. 13:00 18 3 36 190° S
Ortszeit Stärke Spitze Richtung
km/h Bft. km/h Grad Sektor
Sa, 23.01. 12:00 14 3 - 330° NW
Sa, 23.01. 11:00 11 2 - 340° N
Sa, 23.01. 10:00 14 3 29 20° N
Sa, 23.01. 9:00 11 2 - 10° N
Sa, 23.01. 8:00 11 2 - 360° N
Sa, 23.01. 7:00 11 2 - 60° NO
Ortszeit Untergrenze Bedeckung Gattung
total tief tief mittel hoch
Sa, 23.01. 7:00 - 8/8 7/8 Sc - -
Sa, 23.01. 1:00 - 7/8 7/8 - Ac -
Fr, 22.01. 19:00 - 7/8 7/8 Sc - -
Fr, 22.01. 13:00 - 7/8 1/8 - Ac Cs
Fr, 22.01. 7:00 - 3/8 1/8 - Ac Cs
Fr, 22.01. 1:00 - 7/8 7/8 Cb - -
Do, 21.01. 19:00 - 7/8 7/8 - Ac -
Do, 21.01. 13:00 - 7/8 7/8 - As -
Ortszeit Bedeckungsgrad in Achtel und Wolkenuntergrenze
Sa, 23.01. 12:00 6(60m)
Sa, 23.01. 11:00 7(60m)
Sa, 23.01. 10:00 5(60m)
Sa, 23.01. 9:00 5(120m)
Sa, 23.01. 8:00 7(390m)
Sa, 23.01. 7:00 8
Ortszeit Luftdruck NN (hPa) Tendenz (hPa in 3 Std.)
Sa, 23.01. 7:00 996 - 2,2
Sa, 23.01. 1:00 999 - 0,2
Fr, 22.01. 19:00 997 + 2,4
Fr, 22.01. 13:00 993 - 0,3
Fr, 22.01. 7:00 994 - 2,1
Fr, 22.01. 1:00 998 - 1,5
Do, 21.01. 19:00 1000 + 0,2
Do, 21.01. 13:00 1000 - 0,7
Ortszeit Luftdruck NN (hPa) Tendenz (hPa in 3 Std.)
Sa, 23.01. 12:00 993 - 0,6
Sa, 23.01. 11:00 993 - 1,5
Sa, 23.01. 10:00 993 - 2,8
Sa, 23.01. 9:00 994 - 2,7
Sa, 23.01. 8:00 995 - 2,9
Sa, 23.01. 7:00 996 - 2,2
Ortszeit Schneehöhe (cm)
Sa, 23.01. 7:00 -
Sa, 23.01. 1:00 -
Fr, 22.01. 19:00 -
Fr, 22.01. 13:00 -
Fr, 22.01. 7:00 -
Fr, 22.01. 1:00 -
Do, 21.01. 19:00 -
Do, 21.01. 13:00 -
Ortszeit Schneehöhe (cm)
Sa, 23.01. 12:00 -
Sa, 23.01. 11:00 -
Sa, 23.01. 10:00 -
Sa, 23.01. 9:00 -
Sa, 23.01. 8:00 -
Sa, 23.01. 7:00 -
Link zu dieser Seite / Seite empfehlen

Das Wetter in ...